Content
SEND FEEDBACK

Daily
Averages
Monthly
Summary
Mexico

BUENA VISTA, QUINTANA ROO


Home > North America > Mexico > Quintana Roo
Elevation: 66 feet     Latitude: 18 55N     Longitude: 088 17W

WEATHER
 
SELECT A DAY
Number of Records: 126,235;   Date Range: 1/1/95 - 12/19/14
 
SHARE

PRINT THIS DATA

[ ← Previous Day ]
WEATHER ALMANAC - MARCH 6, 2014
[ Next Day → ]
[ °C ]   °F
Weather ElementAverageHighLow
Temperature82.1 °F93 °F (2:50 pm)75 °F (5:50 am)
Dewpoint72.9 °F77 °F (8:40 am)66.2 °F (6:43 am)
Humidity72.3 %93 % (5:50 am)40 % (2:50 pm)
Barometer29.91 in30.00 in (8:50 pm)29.82 in (3:00 pm)
Wind Speed7.1 mph17.3 mph (7:45 pm)
Weather ElementAverage
Visibility6.6 mi
Wind DirectionE (87.3 °)

Weather ElementTotal
Precipitation---
Cooling Degree Days19 (Base 65)
Growing Degree Days34 (Base 50)
Averaged from 22 records on March 6, 2014
WEATHER CONDITIONS BREAKOUT
WIND DIRECTION BREAKOUT
WEATHER BY HOUR - MARCH 6, 2014
[ °C ]   °F
Local TimeTemperatureDewpointHumidityBarometerVisibilityWind DirectionWind SpeedGust SpeedPrecipitationEventsConditions
5:50 AM75.0 °F73.0 °F93 %29.91 in6.0 miWest (270°)2.2 mphMostly Cloudy
6:43 AM77.0 °F66.2 °F69 %29.91 in7.0 miCalmScattered Clouds
7:41 AM77.0 °F66.2 °F69 %29.92 in7.0 miCalmScattered Clouds
8:40 AM82.4 °F77.0 °F84 %29.95 in7.0 miCalmMostly Cloudy
8:50 AM85.0 °F74.0 °F64 %29.96 in6.0 miESE (120°)6.7 mphMostly Cloudy
9:40 AM82.4 °F77.0 °F84 %29.94 in7.0 miESE (120°)6.9 mphMostly Cloudy
10:41 AM86.0 °F77.0 °F74 %29.93 in7.0 miESE (120°)6.9 mphMostly Cloudy
11:48 AM86.0 °F77.0 °F74 %29.91 in7.0 miESE (120°)6.9 mphMostly Cloudy
11:50 AM92.0 °F72.0 °F43 %29.92 in6.0 miEast (90°)6.7 mphPartly Cloudy
12:40 PM87.8 °F77.0 °F70 %29.87 in7.0 miESE (120°)9.2 mphMostly Cloudy
1:43 PM87.8 °F77.0 °F70 %29.83 in7.0 miESE (120°)9.2 mphMostly Cloudy
2:50 PM93.0 °F71.0 °F40 %29.83 in6.0 miEast (90°)6.7 mphPartly Cloudy
3:00 PM86.0 °F77.0 °F74 %29.82 in7.0 miEast (90°)11.5 mphMostly Cloudy
3:40 PM80.6 °F73.4 °F79 %29.83 in7.0 miEast (100°)6.9 mphOvercast
4:40 PM80.6 °F73.4 °F79 %29.84 in7.0 miEast (90°)9.2 mphOvercast
5:40 PM78.8 °F71.6 °F78 %29.89 in7.0 miEast (100°)11.5 mphOvercast
5:50 PM81.0 °F70.0 °F62 %29.91 in6.0 miNNW (340°)4.5 mphPartly Cloudy
6:40 PM78.8 °F71.6 °F78 %29.92 in7.0 miNorth (10°)11.5 mphOvercast
7:45 PM77.0 °F69.8 °F78 %29.95 in7.0 miNorth (10°)17.3 mphOvercast
8:40 PM77.0 °F69.8 °F78 %29.99 in7.0 miNorth (10°)11.5 mphOvercast
8:50 PM77.0 °F71.0 °F75 %30.00 in5.0 miNorth6.7 mphOvercast
11:50 PM77.0 °F71.0 °F76 %29.99 in5.0 miNorth4.5 mphPartly Cloudy
Hourly data recorded from MMCM, located miles away from Buena Vista, Quintana Roo







STORIES FROM OUR PARTNERS